Content
SEND FEEDBACK

Daily
Averages
Monthly
Summary
United States of America

MADERA, CALIFORNIA


Home > North America > United States > California
Elevation: 253 feet     Latitude: 36 59N     Longitude: 120 06W

WEATHER
 
SELECT A DAY
Number of Records: 150,891;   Date Range: 9/2/98 - 7/29/14
 
SHARE

PRINT THIS DATA

[ ← Previous Day ]
WEATHER ALMANAC - JULY 16, 2013
[ Next Day → ]
[ °C ]   °F
Weather ElementAverageHighLow
Temperature73.8 °F90 °F (4:53 pm)55 °F (5:53 am)
Dewpoint50.2 °F55 °F (9:53 pm)45 °F (3:53 pm)
Humidity48.6 %86 % (5:53 am)21 % (4:53 pm)
Barometer29.88 in29.95 in (11:53 pm)29.80 in (1:53 am)
Wind Speed8 mph11.5 mph (5:53 pm)
Weather ElementAverage
Visibility10 mi
Wind DirectionWNW (299.6 °)

Weather ElementTotal
Precipitation---
Cooling Degree Days7.5 (Base 65)
Growing Degree Days22.5 (Base 50)
Averaged from 23 records on July 16, 2013
WEATHER CONDITIONS BREAKOUT
WIND DIRECTION BREAKOUT
WEATHER BY HOUR - JULY 16, 2013
[ °C ]   °F
Local TimeTemperatureDewpointHumidityBarometerVisibilityWind DirectionWind SpeedGust SpeedPrecipitationEventsConditions
1:53 AM63.0 °F52.0 °F67 %29.80 in10.0 miNW (310°)9.2 mphClear
2:53 AM61.0 °F52.0 °F72 %29.80 in10.0 miWNW (300°)8.1 mphClear
3:53 AM59.0 °F52.0 °F78 %29.81 in10.0 miWNW (300°)5.8 mphClear
4:53 AM57.9 °F52.0 °F81 %29.83 in10.0 miNW (310°)4.6 mphClear
5:53 AM55.0 °F51.1 °F86 %29.86 in10.0 miWNW (300°)4.6 mphClear
6:53 AM59.0 °F52.0 °F78 %29.87 in10.0 miWNW (300°)3.5 mphClear
7:53 AM63.0 °F52.0 °F67 %29.89 in10.0 miWNW (300°)8.1 mphClear
8:53 AM68.0 °F51.1 °F55 %29.91 in10.0 miWNW (300°)9.2 mphClear
9:53 AM72.0 °F50.0 °F46 %29.91 in10.0 miWNW (300°)8.1 mphClear
10:53 AM75.9 °F48.9 °F38 %29.91 in10.0 miWNW (290°)8.1 mphClear
11:53 AM81.0 °F48.0 °F31 %29.91 in10.0 miWNW (290°)9.2 mphClear
12:53 PM82.0 °F48.0 °F30 %29.91 in10.0 miWNW (290°)6.9 mphClear
1:53 PM86.0 °F46.0 °F25 %29.90 in10.0 miWest (280°)5.8 mphClear
2:53 PM89.1 °F46.0 °F22 %29.89 in10.0 miWest (280°)8.1 mphClear
3:53 PM89.1 °F45.0 °F22 %29.88 in10.0 miWNW (300°)8.1 mphPartly Cloudy
4:53 PM90.0 °F45.0 °F21 %29.87 in10.0 miWNW (290°)10.4 mphPartly Cloudy
5:53 PM89.1 °F48.0 °F24 %29.86 in10.0 miWNW (290°)11.5 mphClear
6:53 PM87.1 °F46.9 °F25 %29.86 in10.0 miNW (320°)9.2 mphClear
7:53 PM82.0 °F51.1 °F34 %29.88 in10.0 miWNW (300°)6.9 mphClear
8:53 PM77.0 °F54.0 °F45 %29.90 in10.0 miNW (310°)9.2 mphClear
9:53 PM73.9 °F55.0 °F52 %29.93 in10.0 miNW (320°)10.4 mphClear
10:53 PM71.1 °F54.0 °F55 %29.94 in10.0 miNW (310°)9.2 mphClear
11:53 PM66.9 °F54.0 °F63 %29.95 in10.0 miWNW (300°)9.2 mphClear
Hourly data recorded from KMAE, located miles away from Madera, California







STORIES FROM OUR PARTNERS